Weather History for Seward, AK

Change the Weather History Date:

Tuesday, May 1, 2012

  Actual Average Record
Temperature  
Mean Temperature 42 °F -  
Max Temperature 48 °F 47 °F 66 °F (2014)
Min Temperature 37 °F 35 °F 28 °F (2006)
Degree Days  
Heating Degree Days 22    
Moisture  
Dew Point 20 °F    
Average Humidity 39    
Maximum Humidity 52    
Minimum Humidity 30    
Precipitation  
Precipitation 0.00 in - - ()
Sea Level Pressure  
Sea Level Pressure 29.57 in    
Wind  
Wind Speed 13 mph (North)    
Max Wind Speed 20 mph    
Max Gust Speed 28 mph    
Visibility 10 miles    
Events Rain    
Averages and records for this station are not official NWS values.
T = Trace of Precipitation, MM = Missing Value Source: NWS Daily Summary

Daily Weather History Graph

Daily Weather History Graph

Search for Another Location

Airport:

Trip Planner

Search our weather history database for the weather conditions in past years. The results will help you decide how hot, cold, wet, or windy it might be!

Date:

Astronomy

May. 01, 2012 Rise Set
Actual Time 5:52 AM AKDT 9:58 PM AKDT
Civil Twilight 4:59 AM AKDT 10:52 PM AKDT
Nautical Twilight 3:33 AM AKDT 12:20 AM AKDT
Astronomical Twilight Sun does not rise Sun does not rise
Moon 4:03 PM AKDT 4:13 AM AKDT
Length of Visible Light 17h 53m
Length of Day
16h 05m
Waxing Gibbous, 75% of the Moon is Illuminated
May 1
Waxing Gibbous
May 5
Full
May 12
Last Quarter
May 20
New
May 28
First Quarter

Hourly Weather History & Observations

Time (AKDT) Temp. Windchill Dew Point Humidity Pressure Visibility Wind Dir Wind Speed Gust Speed Precip Events Conditions
12:53 AM 46.0 °F 41.9 °F 25.0 °F 44% 29.56 in 10.0 mi North 8.1 mph - N/A   Clear
1:53 AM 46.0 °F 42.5 °F 25.0 °F 44% 29.57 in 10.0 mi North 6.9 mph - N/A   Clear
2:53 AM 46.0 °F 40.2 °F 25.0 °F 44% 29.57 in 10.0 mi NNE 12.7 mph 19.6 mph N/A   Clear
3:53 AM 44.1 °F 37.7 °F 25.0 °F 47% 29.56 in 10.0 mi North 12.7 mph - N/A   Clear
4:53 AM 43.0 °F 36.0 °F 25.0 °F 49% 29.55 in 10.0 mi North 13.8 mph - N/A   Clear
5:53 AM 42.1 °F 34.9 °F 25.0 °F 51% 29.55 in 10.0 mi NNE 13.8 mph 20.7 mph N/A   Clear
6:53 AM 42.1 °F 34.5 °F 25.0 °F 51% 29.55 in 10.0 mi North 15.0 mph - N/A   Clear
7:53 AM 43.0 °F 36.0 °F 25.0 °F 49% 29.55 in 10.0 mi NNE 13.8 mph 23.0 mph N/A   Mostly Cloudy
8:53 AM 44.1 °F 36.5 °F 24.1 °F 45% 29.54 in 10.0 mi NNE 17.3 mph 23.0 mph N/A   Mostly Cloudy
9:53 AM 46.9 °F - 19.9 °F 34% 29.54 in 10.0 mi NNW 16.1 mph 24.2 mph N/A   Mostly Cloudy
10:53 AM 48.0 °F - 19.0 °F 32% 29.53 in 10.0 mi NNW 12.7 mph 23.0 mph N/A   Overcast
11:53 AM 46.9 °F - 17.1 °F 30% 29.55 in 10.0 mi NW 17.3 mph 24.2 mph N/A   Overcast
12:53 PM 45.0 °F 38.2 °F 21.0 °F 39% 29.56 in 10.0 mi NNW 15.0 mph 27.6 mph 0.00 in Rain Light Rain
1:53 PM 45.0 °F 39.7 °F 28.0 °F 52% 29.57 in 10.0 mi North 10.4 mph - 0.00 in   Overcast
2:53 PM 45.0 °F 37.1 °F 24.1 °F 44% 29.58 in 10.0 mi NW 19.6 mph 25.3 mph N/A   Overcast
3:53 PM 46.9 °F - 19.9 °F 34% 29.57 in 10.0 mi NNW 17.3 mph 23.0 mph N/A   Overcast
4:53 PM 48.0 °F - 19.0 °F 32% 29.57 in 10.0 mi NW 12.7 mph 23.0 mph N/A   Mostly Cloudy
5:53 PM 46.9 °F - 18.0 °F 32% 29.58 in 10.0 mi NW 16.1 mph 26.5 mph N/A   Mostly Cloudy
6:53 PM 46.0 °F 39.6 °F 18.0 °F 33% 29.58 in 10.0 mi NNW 15.0 mph 27.6 mph N/A   Clear
7:53 PM 43.0 °F 35.7 °F 14.0 °F 31% 29.60 in 10.0 mi NW 15.0 mph 25.3 mph N/A   Clear
8:53 PM 41.0 °F 33.5 °F 12.9 °F 32% 29.61 in 10.0 mi NNW 13.8 mph 23.0 mph N/A   Clear
9:53 PM 39.0 °F 30.6 °F 12.0 °F 33% 29.63 in 10.0 mi NNW 15.0 mph 21.9 mph N/A   Clear
10:53 PM 37.9 °F 29.2 °F 10.0 °F 32% 29.64 in 10.0 mi North 15.0 mph 23.0 mph N/A   Clear
11:53 PM 37.0 °F 28.5 °F 8.1 °F 30% 29.65 in 10.0 mi North 13.8 mph 25.3 mph N/A   Clear